When you browse on this site, cookies collect data to enhance your experience and personalize the content and advertising you see.
Visit our Privacy Policy to learn more. By continuing to use the site, you agree to this use of cookies and data.
  • In Lithuania
  • List of Countries
  • For 7 days
  • Water Temperature
  • Satellite Maps
  • Weather Map
  • Weather Widgets
  • user-avatar
    Login

    Hourly Weather Vilnius

    Today, 22 April, Monday

    Time Temperature Precipitation Wind Pressure Humidity
    00:00 +7°C° 0 mm 3 mps 755 mmHg 83%
    01:00 +7°C° 0 mm 3 mps 755 mmHg 82%
    02:00 +5°C° 0 mm 3 mps 755 mmHg 80%
    03:00 +5°C° 0 mm 3 mps 756 mmHg 81%
    04:00 +5°C° 0 mm 3 mps 756 mmHg 81%
    05:00 +4°C° 0 mm 3 mps 756 mmHg 82%
    06:00 +7°C° 0 mm 3 mps 757 mmHg 76%
    07:00 +9°C° 0 mm 3 mps 757 mmHg 70%
    08:00 +11°C° 0 mm 3 mps 758 mmHg 64%
    09:00 +12°C° 0 mm 3 mps 758 mmHg 55%
    10:00 +14°C° 0 mm 4 mps 758 mmHg 47%
    11:00 +15°C° 0 mm 4 mps 758 mmHg 39%
    12:00 +17°C° 0 mm 4 mps 758 mmHg 37%
    13:00 +17°C° 0 mm 4 mps 758 mmHg 36%
    14:00 +18°C° 0 mm 4 mps 758 mmHg 35%
    15:00 +17°C° 0 mm 4 mps 758 mmHg 36%
    16:00 +17°C° 0 mm 3 mps 758 mmHg 37%
    17:00 +17°C° 0 mm 3 mps 758 mmHg 38%
    18:00 +14°C° 0 mm 3 mps 758 mmHg 45%
    19:00 +13°C° 0 mm 2 mps 758 mmHg 51%
    20:00 +11°C° 0 mm 1 mps 759 mmHg 58%
    21:00 +11°C° 0 mm 1 mps 759 mmHg 59%
    22:00 +10°C° 0 mm 1 mps 759 mmHg 60%
    23:00 +9°C° 0 mm 2 mps 760 mmHg 61%

    Tomorrow, 23 April, Tuesday

    Time Temperature Precipitation Wind Pressure Humidity
    00:00 +8°C° 0 mm 2 mps 760 mmHg 61%
    01:00 +8°C° 0 mm 2 mps 760 mmHg 62%
    02:00 +7°C° 0 mm 2 mps 760 mmHg 63%
    03:00 +7°C° 0 mm 2 mps 760 mmHg 63%
    04:00 +6°C° 0 mm 2 mps 760 mmHg 63%
    05:00 +6°C° 0 mm 2 mps 760 mmHg 64%
    06:00 +8°C° 0 mm 2 mps 760 mmHg 60%
    07:00 +9°C° 0 mm 2 mps 761 mmHg 55%
    08:00 +12°C° 0 mm 2 mps 761 mmHg 51%
    09:00 +13°C° 0 mm 3 mps 761 mmHg 45%
    10:00 +14°C° 0 mm 4 mps 761 mmHg 40%
    11:00 +17°C° 0 mm 4 mps 760 mmHg 34%
    12:00 +18°C° 0 mm 4 mps 760 mmHg 34%
    13:00 +17°C° 0 mm 5 mps 760 mmHg 34%
    14:00 +17°C° 0 mm 5 mps 760 mmHg 34%
    15:00 +18°C° 0 mm 4 mps 759 mmHg 36%
    16:00 +18°C° 0 mm 4 mps 759 mmHg 37%
    17:00 +18°C° 0 mm 4 mps 758 mmHg 39%
    18:00 +16°C° 0 mm 3 mps 758 mmHg 46%
    19:00 +13°C° 0 mm 3 mps 759 mmHg 53%
    20:00 +12°C° 0 mm 2 mps 759 mmHg 60%
    21:00 +12°C° 0 mm 2 mps 759 mmHg 61%
    22:00 +10°C° 0 mm 2 mps 759 mmHg 63%
    23:00 +9°C° 0 mm 3 mps 759 mmHg 64%

    Day after tomorrow, 24 April, Wednesday

    Time Temperature Precipitation Wind Pressure Humidity
    00:00 +9°C° 0 mm 3 mps 759 mmHg 65%
    01:00 +9°C° 0 mm 3 mps 759 mmHg 65%
    02:00 +8°C° 0 mm 3 mps 759 mmHg 65%
    03:00 +8°C° 0 mm 3 mps 759 mmHg 66%
    04:00 +7°C° 0 mm 3 mps 759 mmHg 67%
    05:00 +7°C° 0 mm 3 mps 759 mmHg 68%
    06:00 +9°C° 0 mm 3 mps 759 mmHg 63%
    07:00 +11°C° 0 mm 4 mps 759 mmHg 57%
    08:00 +12°C° 0 mm 4 mps 759 mmHg 52%
    09:00 +14°C° 0 mm 5 mps 759 mmHg 48%
    10:00 +15°C° 0 mm 6 mps 759 mmHg 44%
    11:00 +16°C° 0 mm 7 mps 759 mmHg 40%
    12:00 +17°C° 0 mm 7 mps 758 mmHg 40%
    13:00 +17°C° 0 mm 7 mps 758 mmHg 39%
    14:00 +18°C° 0 mm 7 mps 758 mmHg 39%
    15:00 +19°C° 0 mm 6 mps 757 mmHg 40%
    16:00 +19°C° 0 mm 6 mps 757 mmHg 41%
    17:00 +17°C° 0 mm 5 mps 757 mmHg 42%
    18:00 +16°C° 0 mm 5 mps 757 mmHg 48%
    19:00 +14°C° 0 mm 4 mps 757 mmHg 53%
    20:00 +13°C° 0 mm 3 mps 757 mmHg 59%
    21:00 +12°C° 0 mm 3 mps 757 mmHg 60%
    22:00 +12°C° 0 mm 4 mps 757 mmHg 61%
    23:00 +11°C° 0 mm 4 mps 757 mmHg 62%

    25 April, Thursday

    Time Temperature Precipitation Wind Pressure Humidity
    00:00 +11°C° 0 mm 4 mps 757 mmHg 62%
    01:00 +11°C° 0 mm 4 mps 757 mmHg 62%
    02:00 +11°C° 0 mm 4 mps 757 mmHg 62%
    03:00 +10°C° 0 mm 4 mps 757 mmHg 63%
    04:00 +10°C° 0 mm 4 mps 757 mmHg 63%
    05:00 +10°C° 0 mm 4 mps 757 mmHg 63%
    06:00 +10°C° 0 mm 5 mps 756 mmHg 60%
    07:00 +12°C° 0 mm 5 mps 756 mmHg 58%
    08:00 +13°C° 0 mm 6 mps 756 mmHg 55%
    09:00 +14°C° 0 mm 6 mps 756 mmHg 52%
    10:00 +15°C° 0 mm 6 mps 756 mmHg 49%
    11:00 +16°C° 0 mm 6 mps 756 mmHg 46%
    12:00 +17°C° 0 mm 6 mps 755 mmHg 45%
    13:00 +19°C° 0 mm 6 mps 755 mmHg 44%
    14:00 +20°C° 0 mm 6 mps 755 mmHg 43%
    15:00 +20°C° 0 mm 5 mps 755 mmHg 44%
    16:00 +20°C° 0 mm 5 mps 754 mmHg 45%
    17:00 +20°C° 0 mm 5 mps 754 mmHg 45%
    18:00 +19°C° 0 mm 4 mps 754 mmHg 50%
    19:00 +17°C° 0 mm 3 mps 754 mmHg 55%
    20:00 +16°C° 0 mm 3 mps 754 mmHg 59%
    21:00 +14°C° 0 mm 3 mps 754 mmHg 61%
    22:00 +13°C° 0 mm 3 mps 754 mmHg 63%
    23:00 +13°C° 0 mm 3 mps 754 mmHg 65%

    26 April, Friday

    Time Temperature Precipitation Wind Pressure Humidity
    00:00 +12°C° 0 mm 3 mps 754 mmHg 67%
    01:00 +12°C° 0 mm 3 mps 753 mmHg 69%
    02:00 +11°C° 0 mm 3 mps 753 mmHg 71%
    03:00 +11°C° 0 mm 3 mps 753 mmHg 72%
    04:00 +10°C° 0 mm 3 mps 753 mmHg 72%
    05:00 +10°C° 0 mm 3 mps 753 mmHg 73%
    06:00 +11°C° 0 mm 4 mps 752 mmHg 70%
    07:00 +13°C° 0 mm 4 mps 752 mmHg 67%
    08:00 +14°C° 0 mm 5 mps 752 mmHg 64%
    09:00 +15°C° 0 mm 5 mps 752 mmHg 60%
    10:00 +17°C° 0 mm 5 mps 752 mmHg 56%
    11:00 +20°C° 0 mm 5 mps 751 mmHg 53%
    12:00 +20°C° 0 mm 5 mps 751 mmHg 52%
    13:00 +21°C° 0 mm 5 mps 751 mmHg 52%
    14:00 +22°C° 0 mm 5 mps 750 mmHg 51%
    15:00 +22°C° 0 mm 5 mps 750 mmHg 53%
    16:00 +22°C° 0 mm 5 mps 749 mmHg 54%
    17:00 +22°C° 0 mm 4 mps 749 mmHg 55%
    18:00 +20°C° 0 mm 4 mps 749 mmHg 60%
    19:00 +19°C° 0 mm 4 mps 749 mmHg 65%
    20:00 +17°C° 0 mm 4 mps 749 mmHg 70%
    21:00 +17°C° 0.3 mm 4 mps 748 mmHg 73%
    22:00 +15°C° 0.3 mm 4 mps 748 mmHg 76%
    23:00 +14°C° 0.3 mm 4 mps 748 mmHg 78%

    27 April, Saturday

    Time Temperature Precipitation Wind Pressure Humidity
    00:00 +14°C° 0.4 mm 4 mps 748 mmHg 82%
    01:00 +14°C° 0.4 mm 4 mps 748 mmHg 85%
    02:00 +13°C° 0.4 mm 4 mps 747 mmHg 89%
    03:00 +13°C° 0 mm 3 mps 747 mmHg 90%
    04:00 +13°C° 0 mm 3 mps 747 mmHg 92%
    05:00 +12°C° 0 mm 3 mps 747 mmHg 94%
    06:00 +13°C° 0.3 mm 3 mps 747 mmHg 91%
    07:00 +14°C° 0.3 mm 4 mps 747 mmHg 88%
    08:00 +15°C° 0.3 mm 4 mps 747 mmHg 85%
    09:00 +17°C° 1.3 mm 4 mps 747 mmHg 84%
    10:00 +18°C° 1.3 mm 4 mps 747 mmHg 83%
    11:00 +19°C° 1.3 mm 4 mps 747 mmHg 81%
    12:00 +19°C° 1.5 mm 4 mps 747 mmHg 78%
    13:00 +20°C° 1.5 mm 4 mps 747 mmHg 75%
    14:00 +21°C° 1.5 mm 4 mps 747 mmHg 72%
    15:00 +19°C° 1.1 mm 4 mps 747 mmHg 77%
    16:00 +18°C° 1.1 mm 4 mps 747 mmHg 82%
    17:00 +15°C° 1.1 mm 4 mps 747 mmHg 87%
    18:00 +14°C° 0 mm 4 mps 747 mmHg 87%
    19:00 +14°C° 0 mm 4 mps 748 mmHg 87%
    20:00 +13°C° 0 mm 4 mps 748 mmHg 88%
    21:00 +12°C° 0 mm 4 mps 748 mmHg 88%
    22:00 +12°C° 0 mm 4 mps 749 mmHg 89%
    23:00 +11°C° 0 mm 4 mps 749 mmHg 90%
    Show more